Location: Cardiff
(53.7833°N, 113.6000°W)
Time: 06:18:58
(UTC+00:00)

SO-50 - Pass Details

Date: 09 December 2023
Orbit: 608 x 660 km, 64.6° (Epoch: 02 March)

Event Time Altitude Azimuth Distance (km) Brightness Sun altitude
Exits shadow 11:16:33 13° 43° (NE) 1,874 ? -37.3°
Drops below altitude 10° 11:17:00 10° 43° (NE) 2,044 ? -37.2°
Sets 11:19:18 0° 46° (NE) 2,947 ? -36.9°
